カタログに戻る

TITAN 3C TRANSTAGE DEB

LostHEO
NORAD 34172·DEBRIS·🇺🇸 United States

打ち上げ Dec 21, 1965 から Cape Canaveral Space Force Station

Loading…

次のパス (今後24時間)

TLE

古いSource: Space-Track

元期: Jul 31, 2023, 10:02 UTC

1 34172U 65108DF  23212.41849171 -.00000088  00000-0  17240-3 0  9996
2 34172  26.5833 103.6178 6736270 188.2707 356.6377  2.65624944166727

AllMySatでTITAN 3C TRANSTAGE DEBをリアルタイム追跡

Download on the App Store